Releases

[Show "Revision History"] [Show "General Page Infos"] [Show "Page hits and edits"]

Revision History

Showing page edit history entries from 308 to 332 out of 332 entries total. (5 | 10 | 25 | 50 | 100 | 200 items per page)

332 307 282 257 232 207 7 Older
# Date Size Editor Comment Action
332 2022-05-28 06:56:04 36455 to previous ginggs   view
331 2022-05-28 06:52:07 36198 to previous ginggs   view
330 2022-05-02 12:15:29 35950 to previous guiverc email from littlegirl@gmail.com to ubuntu-doc noted no LTS on 22.04 LTS view
329 2022-04-26 16:14:53 35941 to previous paride KK -> Kinetic Kudu (fixup) view
328 2022-04-26 16:13:35 35932 to previous paride KK -> Kinetic Kudu view
327 2022-04-21 17:38:30 35905 to previous paride Move Jammy to released view
326 2022-04-20 11:11:20 35576 to previous paride   view
325 2022-03-28 19:18:36 35556 to previous ian-weisser Restore visible column headers, apparently hidden by revision 267 view
324 2022-02-25 10:12:03 35472 to previous sil2100 Adding 20.04.4 view
323 2022-01-28 00:51:50 35022 to previous brian-murray   view
322 2022-01-20 19:49:52 34944 to previous brian-murray   view
321 2021-10-21 22:07:07 34976 to previous brian-murray   view
320 2021-10-19 11:03:00 34518 to previous gjolly Add link to hirsute release announcement view
319 2021-10-18 08:43:35 34439 to previous gjolly JJ is now known as Jammy Jellyfish view
318 2021-10-15 03:16:53 34420 to previous seth-arnold Impish Indri is released view
317 2021-10-06 11:56:13 34306 to previous laney Fix Impish release notes link view
316 2021-09-21 07:23:24 34297 to previous nmavrogiannopoulos updated for new lifecycle view
315 2021-09-17 15:18:46 34203 to previous nmavrogiannopoulos updated ESM table view
314 2021-09-03 22:46:20 33895 to previous brian-murray   view
313 2021-09-03 22:42:07 33896 to previous brian-murray   view
312 2021-09-03 22:40:04 33902 to previous brian-murray   view
311 2021-07-25 13:08:32 33449 to previous brian-murray   view
310 2021-07-22 21:23:16 33374 to previous brian-murray   view
309 2021-05-03 19:20:45 33325 to previous nmavrogiannopoulos added link to packages view
308 2021-05-03 16:52:56 33315 to previous vorlon ESM EOL date for 20.04 per https://ubuntu.com/about/release-cycle view
332 307 282 257 232 207 7 Older